This is the latest recevied weather packets stored in our database for station/object AC5CM. If no packets are shown the sender has not sent any weather packets the latest 10 day(s).
| Time | Temp. | Humidity | Pressure | Rain* | Wind** | Luminosity | Snow |
|---|---|---|---|---|---|---|---|
| 1777647833 | 17.78° C | 95% | 1011.7 hPa | 0 mm | - | - | - |
| 1777647529 | 17.78° C | 96% | 1011.6 hPa | 0 mm | - | - | - |
| 1777647226 | 17.78° C | 96% | 1011.9 hPa | 0 mm | - | - | - |
| 1777646924 | 17.78° C | 96% | 1011.6 hPa | 0 mm | - | - | - |
| 1777646619 | 18.33° C | 96% | 1011.9 hPa | 0 mm | - | - | - |
| 1777646316 | 18.33° C | 96% | 1012.3 hPa | 0 mm | - | - | - |
| 1777646013 | 18.33° C | 96% | 1012 hPa | 0 mm | - | - | - |
| 1777645709 | 18.33° C | 96% | 1012.1 hPa | 0 mm | - | - | - |
| 1777645406 | 18.33° C | 96% | 1012.5 hPa | 0 mm | - | - | - |
| 1777645101 | 18.33° C | 97% | 1012.3 hPa | 0 mm | - | - | - |
| 1777644798 | 18.33° C | 96% | 1012.2 hPa | 1.27 mm | - | - | - |
| 1777644496 | 18.33° C | 96% | 1012.9 hPa | 8.89 mm | - | - | - |
| 1777644192 | 18.33° C | 96% | 1013.1 hPa | 6.1 mm | - | - | - |
| 1777643889 | 18.33° C | 96% | 1012.5 hPa | 1.78 mm | - | - | - |
| 1777643587 | 18.33° C | 96% | 1014.2 hPa | 3.05 mm | - | - | - |
| 1777643283 | 18.33° C | 96% | 1012.4 hPa | 1.27 mm | - | - | - |
| 1777642979 | 18.33° C | 96% | 1012 hPa | 0 mm | - | - | - |
| 1777642675 | 18.33° C | 96% | 1012.9 hPa | 0 mm | - | - | - |
| 1777642373 | 18.33° C | 96% | 1013.6 hPa | 1.78 mm | - | - | - |
| 1777642069 | 18.33° C | 96% | 1013.1 hPa | 1.78 mm | - | - | - |
| 1777641766 | 18.33° C | 96% | 1012.4 hPa | 0 mm | - | - | - |
| 1777641466 | 18.33° C | 96% | 1012.7 hPa | 0 mm | - | - | - |
| 1777641162 | 18.33° C | 96% | 1013.2 hPa | 0 mm | - | - | - |
| 1777640857 | 18.33° C | 96% | 1013.2 hPa | 0 mm | - | - | - |
| 1777640555 | 18.33° C | 96% | 1012.9 hPa | 0 mm | - | - | - |
* Rain latest hour (hover to see other rain measurements)
** Current wind speed in m/s (hover to see current wind gust speed)